Ana Sayfa
METAR-TAF:

METAR-TAF

Havaalanları :

Pocono Mountains Municipal Airport

Mount Pocono, Pensilvanya, Amerika Birleşik Devletleri

Enlem: 41-08-20N, Boylam: 075-23-46W, yükseklik: 584 m

Güncel hava durumu gözlemi

Rapor saat 01:53 UTC de 31 dakika önce yapıldı.
Rüzgar kuzeybatıdan 3 kt
Sıcaklık 12°C
Nem 100%
Basınç 1016 hPa
Görüş mesafesi: 16.1 km
Açık gökyüzü

METAR: KMPO 070153Z AUTO 31003KT 10SM CLR 12/12 A3001 RMK AO2 SLP162 T01220117

Saat: 22:24 (02:24 UTC)


TAF: eksik

4.000'den fazla havaalanı için hava durumu gözlemleri ve tahminleri (METAR ve TAF raporları).

Kullanılabilir istasyonlar harita üzerinde sarı ve kırmızı noktalarla gösterilir.

İstasyonun adını görmek için fareyi noktanın üzerinde gezdirin.

Sonrasında hava gözlem ve tahminlerini görmek için tıklayın.

Haritayı değiştirmek için: yaklaştırmak için siyah artı işaretli yeşil düğmeye ve uzaklaştırmak için de eksi işaretli düğmeye hızla tıklayın; bitişik haritalar için yeşil okları kullanın.


METAR-TAF: